Regional Weather Roundup
Issued by NWS

Home | Current Version | Previous Version | Text Only | Print | Product List | Glossary On
Versions: 1 2 3 4 5 6 7 8 9 10 11 12 13 14 15 16 17 18 19 20 21 22 23 24 25 26 27 28 29 30 31 32 33 34 35 36 37 38 39 40 41 42 43 44 45 46 47 48 49 50
000
ASUS42 KFFC 312310
RWRGA
WEATHER ROUNDUP FOR GEORGIA
NATIONAL WEATHER SERVICE PEACHTREE CITY GA
700 PM EDT FRI JUL 31 2015

NOTE: "FAIR" INDICATES FEW OR NO CLOUDS BELOW 12,000 FEET WITH NO
SIGNIFICANT WEATHER AND/OR OBSTRUCTIONS TO VISIBILITY.

* = USE WITH CAUTION. THE STATIONS MARKED WITH AN ASTERISK MAY NOT
REPORT WEATHER SUCH AS PRECIPITATION, FOG, OR THUNDER AND ARE NOT
QUALITY CONTROLLED BY NWS.

THE REMARK "TC" DENOTES TEMPERATURE READING IN DEGREES CELSIUS.

GAZ001>058-010000-
NORTH GEORGIA

CITY           SKY/WX    TMP DP  RH WIND       PRES   REMARKS
ATLANTA        LGT RAIN  90  71  53 NW12      29.92S HX  96
ATHENS         SUNNY     93  66  40 E5        29.91F HX  96
CHAMBLEE       PTSUNNY   93  70  46 NW10      29.92F HX  99
PEACHTREE CITY PTSUNNY   84  73  69 SE8       29.93R HX  90
ROME           SUNNY     88  58  36 N16       29.95R
WEST ATLANTA   MOSUNNY   90  69  50 NW13      29.91F HX  94
GAINESVILLE    CLOUDY    87  68  52 E3        29.96F HX  90
CARTERSVILLE   SUNNY     87  63  44 N7        29.94F


CITY           SKY/WX    TMP DP  RH WIND       PRES   REMARKS
DALTON*        SUNNY     82  61  47 N12G17    29.97S
LAWRENCEVILLE* MOSUNNY   91  66  43 CALM      29.91F HX  94
MARIETTA       MOSUNNY   89  68  50 NW10G18   29.93F HX  93
KENNESAW*      MOSUNNY   88  66  48 NW7       29.95S HX  90
BLAIRSVILLE*     N/A     81  23  12 CALM      30.03R
$$

GAZ059>098-102>109-010000-
CENTRAL GEORGIA

CITY           SKY/WX    TMP DP  RH WIND       PRES   REMARKS
AUGUSTA-BUSH   MOSUNNY   89  73  59 SW10      29.88S HX  97
AUGUSTA-DANIEL MOSUNNY   88  73  61 S7        29.90S HX  95
COLUMBUS       CLOUDY    77  72  84 CALM      29.89F
MACON          CLOUDY    75  72  90 W3        29.91F THUNDER
ROBINS AFB     LGT RAIN  75  73  94 S2        29.90F


CITY           SKY/WX    TMP DP  RH WIND       PRES   REMARKS
LAGRANGE*      CLOUDY    85  81  86 S5        29.91S HX 101
SYLVANIA*      CLOUDY    79  76  91 CALM      29.91F
MILLEDGEVILLE* CLOUDY    79  72  78 W3        29.91F
$$

GAZ099>101-110>166-010000-
SOUTH GEORGIA

CITY           SKY/WX    TMP DP  RH WIND       PRES   REMARKS
SAVANNAH       CLOUDY    78  75  90 CALM      29.91S
VALDOSTA       MOSUNNY   88  78  72 VRB3      29.87S HX 101
ALMA           CLOUDY    81  73  76 S9        29.90R
ST SIMONS      TSTM      75  73  93 CALM      29.91S VSB 3/4
FT STEWART     LGT RAIN  77  77 100 CALM      29.87F
ALBANY         PTSUNNY   88  77  69 S9        29.88R HX 100
HUNTER AFB     CLOUDY    80  76  89 W1        29.88F
MOODY AFB      MOSUNNY   91  76  62 SW7       29.87R HX 102
BRUNSWICK      CLOUDY    77  73  88 CALM      29.91S


CITY           SKY/WX    TMP DP  RH WIND       PRES   REMARKS
BAINBRIDGE*    SUNNY     88  79  74 SW3       29.87R HX 102
MOULTRIE*      MOSUNNY   90  73  58 CALM      29.87F HX  98
VIDALIA*       CLOUDY    77  73  88 CALM      29.91S
WAYCROSS*      TSTM      78  78 100 SE10      29.92R VSB 1/2
DOUGLAS*       TSTM      77  72  83 CALM      29.87F VSB 1/2
$$


USA.gov is the U.S. government's official web portal to all federal, state and local government web resources and services.